FW4002 Weather Reports


Display with metric or nautical units.
time (UTC)temp
F
wind
direction
speed
MPH
gust
MPH
rain 1hr
in
rain 24hr
in
rain mn
in
humidity
%
barometer
mb
20260902220903 93 224 5.0 11.0 0.00 0.00 0.00 58 1015.4
20260902220003 94 217 3.0 9.0 0.00 0.00 0.00 58 1015.4
20260902215403 94 222 2.0 9.0 0.00 0.00 0.00 58 1015.3
20260902214503 94 223 3.0 8.0 0.00 0.00 0.00 59 1015.3
20260902213603 94 217 4.0 9.0 0.00 0.00 0.00 58 1015.3
20260902212703 94 228 3.0 9.0 0.00 0.00 0.00 58 1015.3
20260902211803 94 221 4.0 9.0 0.00 0.00 0.00 58 1015.3
20260902210903 94 221 5.0 11.0 0.00 0.00 0.00 58 1015.4
20260902210003 94 219 5.0 13.0 0.00 0.00 0.00 57 1015.5
20260902205403 94 220 5.0 8.0 0.00 0.00 0.00 58 1015.4
20260902204503 94 215 5.0 12.0 0.00 0.00 0.00 57 1015.5
20260902203603 94 208 6.0 14.0 0.00 0.00 0.00 57 1015.7
20260902202703 93 214 6.0 14.0 0.00 0.00 0.00 57 1015.6
20260902201803 94 214 6.0 16.0 0.00 0.00 0.00 56 1015.7
20260902200903 94 215 4.0 12.0 0.00 0.00 0.00 56 1015.7
20260902200003 94 217 5.0 11.0 0.00 0.00 0.00 57 1015.8
20260902195424 94 214 5.0 12.0 0.00 0.00 0.00 57 1015.8
20260902194503 93 220 6.0 15.0 0.00 0.00 0.00 56 1016.0
20260902193603 93 222 6.0 15.0 0.00 0.00 0.00 57 1016.1
20260902192703 93 219 6.0 13.0 0.00 0.00 0.00 57 1016.1
20260902191803 93 215 7.0 13.0 0.00 0.00 0.00 56 1016.3
20260902190903 93 220 6.0 15.0 0.00 0.00 0.00 57 1016.4
20260902190004 93 212 6.0 15.0 0.00 0.00 0.00 58 1016.5
20260902185403 93 215 6.0 13.0 0.00 0.00 0.00 57 1016.5
20260902184503 93 219 5.0 17.0 0.00 0.00 0.00 59 1016.4
20260902183603 92 224 5.0 12.0 0.00 0.00 0.00 62 1016.7
20260902182703 92 246 4.0 10.0 0.00 0.00 0.00 61 1016.8
20260902181824 92 219 5.0 11.0 0.00 0.00 0.00 61 1016.9
20260902180903 92 211 5.0 12.0 0.00 0.00 0.00 62 1016.8
20260902180006 92 219 5.0 11.0 0.00 0.00 0.00 62 1017.0
20260902175424 92 227 5.0 11.0 0.00 0.00 0.00 62 1016.9
20260902174503 92 227 4.0 11.0 0.00 0.00 0.00 64 1017.0
20260902173603 91 235 3.0 13.0 0.00 0.00 0.00 63 1017.0
20260902172703 91 219 4.0 10.0 0.00 0.00 0.00 64 1017.1
20260902171803 91 215 4.0 13.0 0.00 0.00 0.00 63 1017.2
20260902170903 91 215 4.0 11.0 0.00 0.00 0.00 65 1017.3
20260902170004 90 245 3.0 10.0 0.00 0.00 0.00 65 1017.4
20260902165403 90 230 4.0 12.0 0.00 0.00 0.00 63 1017.4
20260902164503 90 221 3.0 12.0 0.00 0.00 0.00 64 1017.6
20260902163603 90 254 3.0 12.0 0.00 0.00 0.00 67 1017.6
20260902162703 89 235 3.0 11.0 0.00 0.00 0.00 66 1017.7
20260902161803 89 236 3.0 11.0 0.00 0.00 0.00 68 1017.8
20260902160924 89 222 4.0 12.0 0.00 0.00 0.00 67 1017.9
20260902160005 88 260 3.0 8.0 0.00 0.00 0.00 68 1017.9
20260902155403 88 241 3.0 8.0 0.00 0.00 0.00 67 1017.9
20260902154503 88 246 2.0 7.0 0.00 0.00 0.00 68 1017.8
20260902153603 88 256 2.0 7.0 0.00 0.00 0.00 69 1017.8
20260902152703 87 256 2.0 7.0 0.00 0.00 0.00 70 1017.8
20260902151803 87 235 2.0 9.0 0.00 0.00 0.00 70 1017.7
20260902150903 86 235 3.0 9.0 0.00 0.00 0.00 70 1017.7
20260902150003 86 226 4.0 11.0 0.00 0.00 0.00 70 1017.7
20260902145403 86 240 3.0 10.0 0.00 0.00 0.00 71 1017.7
20260902144503 85 227 3.0 10.0 0.00 0.00 0.00 71 1017.7
20260902143603 85 219 3.0 9.0 0.00 0.00 0.00 70 1017.6
20260902142705 85 223 3.0 7.0 0.00 0.00 0.00 72 1017.6
20260902141803 84 265 2.0 8.0 0.00 0.00 0.00 73 1017.6
20260902140903 83 250 2.0 9.0 0.00 0.00 0.00 73 1017.6
20260902140003 83 225 3.0 9.0 0.00 0.00 0.00 75 1017.7
20260902135404 82 219 3.0 9.0 0.00 0.00 0.00 76 1017.7
20260902134524 82 225 3.0 8.0 0.00 0.00 0.00 77 1017.7
20260902133624 81 236 3.0 10.0 0.00 0.00 0.00 78 1017.7
20260902132703 80 231 3.0 10.0 0.00 0.00 0.00 78 1017.7
20260902131803 80 213 3.0 8.0 0.00 0.00 0.00 81 1017.8
20260902130924 79 223 3.0 9.0 0.00 0.00 0.00 81 1017.7
20260902130024 78 216 2.0 11.0 0.00 0.00 0.00 83 1017.6
20260902125424 78 220 3.0 11.0 0.00 0.00 0.00 83 1017.6
20260902124503 77 215 3.0 10.0 0.00 0.00 0.00 84 1017.7
20260902123603 77 217 3.0 8.0 0.00 0.00 0.00 85 1017.7
20260902122703 76 217 3.0 7.0 0.00 0.00 0.00 86 1017.7
20260902121803 76 215 2.0 9.0 0.00 0.00 0.00 87 1017.6
20260902120924 75 215 2.0 7.0 0.00 0.00 0.00 89 1017.7
20260902120024 74 213 2.0 5.0 0.00 0.00 0.00 90 1017.7
20260902115403 74 217 2.0 5.0 0.00 0.00 0.00 90 1017.6
20260902114503 74 214 1.0 3.0 0.00 0.00 0.00 90 1017.6
20260902113624 74 215 0.0 3.0 0.00 0.00 0.00 90 1017.6
20260902112703 74 213 1.0 3.0 0.00 0.00 0.00 90 1017.4
20260902111803 74 217 1.0 4.0 0.00 0.00 0.00 90 1017.4
20260902110924 74 217 1.0 3.0 0.00 0.00 0.00 90 1017.3
20260902110005 74 214 2.0 5.0 0.00 0.00 0.00 90 1017.3
20260902105403 74 215 1.0 3.0 0.00 0.00 0.00 90 1017.2
20260902104503 74 217 2.0 4.0 0.00 0.00 0.00 89 1017.1
20260902103603 74 216 2.0 3.0 0.00 0.00 0.00 89 1017.2
20260902102703 74 216 1.0 4.0 0.00 0.00 0.00 89 1017.1
20260902101803 75 215 2.0 4.0 0.00 0.00 0.00 89 1017.1
20260902100903 75 213 1.0 4.0 0.00 0.00 0.00 89 1017.0
20260902100004 75 212 1.0 4.0 0.00 0.00 0.00 89 1016.9
20260902095403 75 220 1.0 4.0 0.00 0.00 0.00 89 1016.9
20260902094503 75 218 2.0 4.0 0.00 0.00 0.00 89 1016.8
20260902093624 75 217 2.0 4.0 0.00 0.00 0.00 89 1016.8
20260902092703 75 217 2.0 5.0 0.00 0.00 0.00 89 1016.8
20260902091803 75 217 1.0 5.0 0.00 0.00 0.00 89 1016.8
20260902090903 76 215 2.0 5.0 0.00 0.00 0.00 89 1016.8
20260902090004 76 214 2.0 5.0 0.00 0.00 0.00 89 1016.7
20260902085403 76 219 2.0 4.0 0.00 0.00 0.00 89 1016.8
20260902084503 76 216 1.0 3.0 0.00 0.00 0.00 88 1016.7
20260902083603 76 221 1.0 4.0 0.00 0.00 0.00 88 1016.7
20260902082703 76 214 1.0 5.0 0.00 0.00 0.00 88 1016.7
20260902081803 76 224 1.0 4.0 0.00 0.00 0.00 88 1016.6
20260902080903 76 216 1.0 4.0 0.00 0.00 0.00 88 1016.5
20260902080004 76 218 2.0 5.0 0.00 0.00 0.00 88 1016.6
20260902075403 76 222 2.0 5.0 0.00 0.00 0.00 88 1016.5
20260902074524 76 219 2.0 5.0 0.00 0.00 0.00 88 1016.5
20260902073604 76 214 2.0 5.0 0.00 0.00 0.00 88 1016.5
20260902072724 76 216 1.0 4.0 0.00 0.00 0.00 89 1016.7
20260902071803 76 219 2.0 6.0 0.00 0.00 0.00 89 1016.5
20260902070924 76 219 1.0 5.0 0.00 0.00 0.00 89 1016.5
20260902070003 76 214 1.0 4.0 0.00 0.00 0.00 89 1016.5
20260902065424 76 213 1.0 5.0 0.00 0.00 0.00 89 1016.5
20260902064503 77 212 2.0 5.0 0.00 0.00 0.00 88 1016.5
20260902063603 77 216 1.0 5.0 0.00 0.00 0.00 88 1016.5
20260902062703 77 219 1.0 4.0 0.00 0.00 0.00 88 1016.7
20260902061803 77 214 1.0 4.0 0.00 0.00 0.00 88 1016.7
20260902060903 77 214 2.0 4.0 0.00 0.00 0.00 88 1016.7
20260902060003 78 210 1.0 4.0 0.00 0.00 0.00 88 1016.8
20260902055403 78 205 1.0 3.0 0.00 0.00 0.00 88 1016.9
20260902054524 78 212 1.0 4.0 0.00 0.00 0.00 88 1016.8
20260902053624 78 208 1.0 3.0 0.00 0.00 0.00 87 1016.7
20260902052724 78 222 1.0 8.0 0.00 0.00 0.00 87 1016.7
20260902051803 78 214 2.0 7.0 0.00 0.00 0.00 87 1016.7
20260902050903 78 217 2.0 6.0 0.00 0.00 0.00 87 1016.7
20260902050006 78 214 3.0 7.0 0.00 0.00 0.00 87 1016.6
20260902045403 78 213 2.0 7.0 0.00 0.00 0.00 87 1016.6
20260902044524 79 217 2.0 5.0 0.00 0.00 0.00 86 1016.5
20260902043624 79 220 2.0 6.0 0.00 0.00 0.00 86 1016.5
20260902042703 79 213 2.0 5.0 0.00 0.00 0.00 86 1016.5
20260902041803 79 215 2.0 5.0 0.00 0.00 0.00 85 1016.5
20260902040903 80 212 2.0 7.0 0.00 0.00 0.00 85 1016.4
20260902040004 80 216 2.0 6.0 0.00 0.00 0.00 85 1016.4
20260902035403 80 215 2.0 6.0 0.00 0.00 0.00 84 1016.4
20260902034503 80 218 2.0 5.0 0.00 0.00 0.00 84 1016.4
20260902033603 80 216 2.0 5.0 0.00 0.00 0.00 84 1016.4
20260902032703 80 212 2.0 6.0 0.00 0.00 0.00 84 1016.4
20260902031803 81 213 1.0 7.0 0.00 0.00 0.00 84 1016.4
20260902030924 81 217 2.0 7.0 0.00 0.00 0.00 84 1016.5
20260902030004 81 214 2.0 5.0 0.00 0.00 0.00 84 1016.5
20260902025403 81 213 2.0 7.0 0.00 0.00 0.00 84 1016.5
20260902024503 81 214 2.0 5.0 0.00 0.00 0.00 84 1016.5
20260902023624 82 215 2.0 4.0 0.00 0.00 0.00 84 1016.5
20260902022703 82 213 2.0 6.0 0.00 0.00 0.00 83 1016.5
20260902021803 82 211 1.0 3.0 0.00 0.00 0.00 84 1016.5
20260902020903 82 208 0.0 3.0 0.00 0.00 0.00 84 1016.5
20260902020003 83 0 0.0 0.0 0.00 0.00 0.00 84 1016.5
20260902015403 83 223 1.0 3.0 0.00 0.00 0.00 84 1016.4
20260902014503 83 226 0.0 2.0 0.00 0.00 0.00 84 1016.4
20260902013603 84 0 0.0 0.0 0.00 0.00 0.00 84 1016.4
20260902012703 84 225 0.0 2.0 0.00 0.00 0.00 83 1016.4
20260902011803 84 218 0.0 2.0 0.00 0.00 0.00 82 1016.2
20260902010903 85 197 0.0 1.0 0.00 0.00 0.00 81 1016.3
20260902010003 85 0 0.0 0.0 0.00 0.00 0.00 80 1016.2
20260902005403 86 0 0.0 0.0 0.00 0.00 0.00 80 1016.2
20260902004503 86 0 0.0 0.0 0.00 0.00 0.00 79 1016.2
20260902003624 86 0 0.0 0.0 0.00 0.00 0.00 78 1016.1
20260902002703 87 0 0.0 0.0 0.00 0.00 0.00 77 1016.2
20260902001803 87 0 0.0 0.0 0.00 0.00 0.00 76 1016.2
20260902000924 88 0 0.0 0.0 0.00 0.00 0.00 75 1016.2
20260902000003 88 0 0.0 0.0 0.00 0.00 0.00 74 1016.3
20260901235403 88 191 0.0 2.0 0.00 0.00 0.00 73 1016.3
20260901234503 89 157 0.0 2.0 0.00 0.00 0.00 72 1016.2
20260901233603 90 179 0.0 3.0 0.00 0.00 0.00 71 1016.2
20260901232725 90 177 0.0 2.0 0.00 0.00 0.00 70 1016.3
20260901231803 91 140 0.0 2.0 0.00 0.00 0.00 68 1016.4
20260901230903 92 144 0.0 2.0 0.00 0.00 0.00 67 1016.4
20260901230004 92 129 0.0 3.0 0.00 0.00 0.00 66 1016.4
20260901225403 92 147 0.0 2.0 0.00 0.00 0.00 65 1016.4
20260901224503 92 234 0.0 2.0 0.00 0.00 0.00 66 1016.4
20260901223624 92 278 0.0 2.0 0.00 0.00 0.00 65 1016.5
20260901222703 92 227 0.0 2.0 0.00 0.00 0.00 65 1016.5
20260901221803 92 224 0.0 3.0 0.00 0.00 0.00 65 1016.5